Вернуться в каталог

ONEWEB-0050

АктивенСвязьPO
NORAD 45453·PAYLOAD·🇬🇧 United Kingdom

Запущен Mar 21, 2020 с Baikonur Cosmodrome

Loading…

Ближайшие Пролёты (ближайшие 24 часа)

TLE

СвежийSource: CelesTrak SupGP

Эпоха: Sep 14, 2026, 15:33 UTC

1 45453C 20020AF  26257.64841850  .00002168  00000+0  22208-3 0  2573
2 45453  88.9332 221.0588 0004969  45.1107  23.0051 14.90613694    13

Отслеживайте ONEWEB-0050 в реальном времени с AllMySat

Download on the App Store